RH
80 59 37 26 21 20 21 22 33 43 41 38 45 60 69 63 52 41 24 15 21 37 56 65 62 46 30 26 25 23 21 18 16 18 19 20 20 22 23 21 23 26 21 20 19 21 28 26 21 24 19 15 23 27 25 23 24 36 47 46 52 63 65 62 62 64 55 40 36 35 32 30 31 38 41 34 35 36 34 48 61 54 53 58 58 58 58
91 73 45 28 23 21 21 22 31 47 57 57 60 66 67 65 66 55 27 11 22 37 43 47 52 48 37 31 26 22 21 18 18 21 21 22 25 25 23 20 21 21 19 19 18 20 29 31 26 26 24 18 18 25 28 26 24 30 44 49 40 44 60 61 59 66 63 54 53 52 52 49 39 39 41 31 26 31 42 57 61 59 62 59 61 70 67
95 81 55 34 27 25 25 24 29 43 54 54 57 70 73 65 71 70 41 20 30 40 37 37 46 49 42 39 36 28 22 19 20 23 22 20 22 24 24 23 20 21 22 24 24 20 23 33 32 25 26 24 21 29 32 28 32 39 49 56 43 41 63 65 55 63 67 65 67 62 57 53 39 33 34 30 26 29 43 54 53 62 70 58 58 70 61
94 87 72 48 32 32 32 27 30 39 44 46 54 69 70 55 58 68 57 44 48 48 42 42 45 46 45 47 43 33 28 26 21 19 22 22 21 23 24 23 23 28 31 32 33 27 25 32 34 31 36 38 33 35 35 32 44 49 46 58 62 54 59 66 66 66 61 61 66 58 45 41 39 36 31 31 37 42 46 47 49 65 70 56 57 62 49
95 94 89 67 42 40 40 32 34 39 36 38 53 67 67 56 54 57 52 50 56 53 46 46 47 45 46 48 43 38 38 35 27 23 24 24 25 27 28 27 27 32 37 39 39 42 45 43 44 49 54 52 42 38 36 36 49 52 41 48 60 49 45 61 66 57 50 52 51 43 36 34 34 35 31 32 43 48 44 43 50 60 58 52 60 59 45
98 98 99 84 58 50 53 43 37 41 35 31 49 68 67 59 58 54 44 47 57 55 48 50 51 46 47 51 46 42 43 44 40 32 27 28 30 33 39 37 30 30 38 42 44 53 62 62 62 63 59 56 53 48 44 40 43 49 43 42 46 41 44 57 55 47 48 47 40 36 34 33 32 35 37 39 43 43 38 40 50 56 52 47 50 50 47
99 99 101 95 73 62 66 57 44 46 40 28 43 66 69 68 74 70 59 57 61 59 55 55 56 52 54 59 52 43 44 47 42 30 31 40 35 33 44 44 33 31 37 47 55 60 64 67 67 62 55 59 62 58 58 53 44 42 43 45 46 44 57 65 49 40 44 39 39 39 34 34 35 35 40 41 42 46 46 47 53 52 50 50 47 49 56
99 99 101 99 83 71 73 69 57 53 44 34 48 69 71 72 77 76 78 78 73 69 64 56 56 56 55 57 52 42 41 42 35 25 29 39 37 37 46 44 34 34 41 53 57 53 53 58 59 53 51 58 60 57 60 55 44 40 44 51 51 50 69 74 47 42 51 42 38 38 33 37 39 36 41 41 41 48 46 45 49 43 44 51 47 50 62
98 98 100 101 92 80 78 76 68 60 55 56 70 78 71 64 63 66 79 88 82 72 62 57 62 63 58 56 52 45 41 36 34 34 30 30 37 42 42 43 42 40 47 54 50 44 44 45 47 45 44 49 50 49 53 47 43 49 52 55 55 54 69 69 46 51 64 45 33 38 39 41 41 40 44 40 38 45 41 39 42 36 38 45 43 54 71
99 98 99 101 98 91 84 77 71 66 66 78 90 88 77 67 65 66 71 81 85 76 64 65 71 64 54 53 50 44 39 34 37 46 41 31 34 38 40 48 50 46 49 48 42 44 43 35 37 38 34 36 36 36 40 37 40 52 53 54 62 62 64 64 55 62 70 50 37 46 50 49 53 61 61 45 37 41 42 44 49 46 46 52 58 72 78
99 98 98 100 98 96 90 81 73 66 70 87 95 90 82 74 76 81 76 76 86 82 67 66 68 59 52 53 50 45 41 38 40 46 44 36 33 36 41 48 50 51 51 42 34 39 38 31 34 33 27 31 33 32 35 33 34 43 44 51 65 62 59 64 58 60 69 58 44 51 61 58 59 71 70 49 37 40 44 48 52 53 57 65 73 79 76
98 97 98 99 98 97 93 89 82 68 65 80 87 82 78 72 76 88 83 78 88 87 72 67 65 60 58 55 51 50 47 45 47 47 44 41 39 38 40 42 45 48 45 36 30 31 29 30 34 33 32 35 35 33 37 38 37 37 36 44 56 57 60 64 57 59 73 64 48 58 69 55 45 56 60 49 48 53 53 56 61 63 69 76 81 81 79
97 97 97 98 98 96 93 93 93 78 63 70 79 79 75 69 73 86 87 85 91 87 78 76 68 58 58 57 53 53 51 49 54 53 46 43 44 42 38 36 38 38 34 33 37 39 42 50 55 54 47 41 43 47 44 39 39 37 34 38 46 54 61 61 57 63 70 64 60 67 64 46 40 50 51 45 52 56 49 53 67 72 75 81 84 83 83
97 97 97 97 97 96 93 91 96 90 72 67 75 80 76 72 76 84 85 88 94 89 83 84 74 60 59 59 56 56 56 53 55 52 45 44 45 39 34 31 30 32 35 43 53 59 65 71 74 73 64 56 65 72 54 35 32 34 35 36 38 48 58 60 62 63 59 62 72 71 60 49 44 45 45 44 54 62 56 55 67 74 76 81 79 75 80
96 95 96 95 95 96 93 90 93 95 82 69 70 76 76 74 75 77 79 86 95 93 86 81 74 66 62 58 55 60 64 64 61 54 46 43 38 34 33 32 30 31 36 45 54 61 68 73 78 83 82 75 73 70 53 37 32 29 30 34 35 42 51 55 62 65 58 59 68 68 65 64 58 60 69 70 70 75 68 59 63 67 71 77 72 65 72
96 95 94 93 94 94 93 90 91 93 87 74 66 68 73 74 73 73 76 82 88 87 80 71 66 63 62 60 57 57 61 65 66 66 65 56 43 37 37 35 33 33 36 46 59 65 69 72 73 78 82 73 63 61 54 46 42 34 28 30 34 45 59 62 63 68 65 62 67 67 64 68 74 80 83 79 76 77 68 58 63 67 67 69 67 64 70
94 93 91 91 93 92 91 92 92 91 93 84 68 64 70 73 74 76 77 81 89 90 77 65 63 66 67 69 69 64 63 65 66 70 73 63 49 44 42 37 36 36 37 47 62 68 70 70 69 75 79 63 51 60 62 53 51 48 39 37 42 54 72 79 75 76 76 74 80 77 65 70 83 84 81 81 77 72 69 72 78 75 66 65 65 64 69
91 91 91 91 92 90 90 93 92 90 94 88 69 62 68 73 76 78 77 78 89 96 82 64 65 70 66 63 67 66 63 64 69 76 79 70 57 49 44 41 42 42 42 50 60 62 67 73 71 74 78 63 48 59 65 56 55 56 49 48 52 53 63 76 79 79 80 82 87 84 74 79 88 86 86 87 77 72 80 85 79 65 57 63 69 69 72
91 91 93 92 91 90 90 91 91 91 92 88 74 63 66 73 75 78 82 84 87 93 84 66 63 66 59 57 66 67 59 58 64 70 79 80 66 49 44 49 51 50 54 66 71 65 69 80 73 64 75 74 56 55 60 54 53 58 54 57 63 58 60 71 73 73 78 83 86 81 72 75 87 88 83 78 73 80 87 79 66 57 56 67 75 73 75
91 91 93 92 90 89 89 89 91 90 88 89 86 71 61 65 70 74 82 87 90 93 85 68 62 64 60 61 69 71 67 67 64 57 63 73 66 57 65 74 67 58 63 74 76 67 71 81 70 59 72 77 58 54 64 64 60 57 53 56 61 57 61 73 70 65 72 77 74 69 64 68 79 79 72 67 66 70 69 63 63 66 66 70 76 75 76
92 92 92 93 91 89 89 88 90 92 89 90 92 80 63 58 64 70 75 79 88 97 88 69 62 65 63 60 61 61 63 69 66 55 57 67 66 64 74 79 68 57 58 67 71 68 73 81 73 65 73 74 64 65 75 79 76 61 46 51 59 55 63 79 75 65 69 73 68 63 62 66 68 63 60 62 61 56 56 60 66 75 77 75 77 80 83
93 91 90 92 91 89 90 89 89 93 93 92 94 92 80 66 63 71 76 75 81 87 81 69 64 61 55 52 53 53 54 56 55 49 51 64 72 68 63 63 62 55 56 72 84 81 82 87 84 81 83 81 78 77 73 80 89 73 50 52 61 60 62 71 73 67 63 65 63 58 58 63 64 57 53 55 57 58 62 65 69 77 82 80 78 81 83
91 90 90 91 90 89 90 90 89 91 93 93 95 95 89 75 68 73 77 75 78 78 69 62 61 57 51 48 46 44 43 46 50 47 42 50 71 81 68 56 58 60 64 79 88 84 85 88 83 85 88 82 79 81 76 78 84 74 60 58 58 55 55 59 66 67 61 56 53 48 48 51 51 51 53 57 63 69 69 70 75 80 83 84 84 84 84
89 88 90 90 88 87 87 88 89 90 91 93 94 92 89 79 72 75 79 81 85 84 77 73 72 66 60 54 44 38 38 40 44 44 38 36 53 76 74 56 52 60 68 74 74 73 82 86 79 85 91 78 72 82 88 84 77 69 70 71 60 53 55 56 59 64 64 65 60 48 43 41 39 47 57 60 66 71 70 73 79 81 83 86 84 83 84
90 90 90 88 85 86 85 86 88 88 90 93 92 89 89 81 72 77 86 88 87 86 90 94 83 63 53 50 42 38 41 41 36 36 38 35 37 49 54 46 40 44 55 68 71 71 82 88 85 91 93 78 72 82 87 83 77 73 80 84 71 61 63 65 64 63 62 63 57 46 43 45 47 56 61 58 62 71 72 74 78 79 81 83 81 82 85
93 92 91 89 87 87 87 87 88 87 88 89 87 87 88 82 76 79 85 86 84 82 89 99 84 57 51 55 48 41 42 40 35 34 35 36 35 34 36 38 41 42 49 64 71 74 83 89 87 94 95 80 74 82 85 81 80 81 85 81 67 63 68 68 66 65 63 59 52 47 49 52 51 56 60 61 67 71 70 72 76 78 82 84 82 83 85
91 91 92 91 91 91 89 89 91 89 86 85 85 87 85 77 74 79 81 84 90 89 92 99 87 65 60 61 50 42 40 37 37 38 36 35 36 35 35 42 50 53 56 63 68 74 83 88 88 93 94 82 77 84 87 81 79 84 84 72 60 64 69 64 64 74 75 65 53 52 59 60 53 52 60 65 68 68 68 71 74 75 79 82 83 83 84
91 91 92 92 92 93 90 89 90 89 87 86 82 79 77 70 66 69 71 75 84 88 90 94 87 76 72 64 47 39 40 38 38 40 38 36 35 36 41 50 57 60 64 72 77 80 85 89 89 89 89 86 86 88 84 82 87 92 85 69 61 65 64 58 64 74 70 58 53 57 65 66 58 56 63 69 68 68 71 72 73 76 79 82 85 87 86
90 90 91 91 91 92 91 91 90 87 89 89 80 73 74 72 66 68 71 72 76 80 85 90 90 85 77 62 44 38 40 39 38 38 38 38 36 35 40 52 63 69 74 80 85 87 89 89 86 84 84 86 89 92 90 89 93 90 75 62 60 60 56 55 60 61 54 52 58 65 68 67 62 61 66 69 69 71 73 73 77 83 83 81 84 88 89
93 92 92 91 88 84 81 80 80 81 87 90 86 82 83 79 72 69 72 75 76 78 85 94 94 86 74 61 51 46 43 39 38 38 37 36 36 34 36 46 62 70 73 78 83 84 87 88 86 86 86 82 85 94 96 94 92 81 65 60 63 61 57 57 58 57 55 57 61 66 69 70 69 69 70 72 73 74 76 79 82 85 84 81 82 87 88
92 85 80 78 74 68 64 63 65 74 86 91 91 93 95 91 78 63 58 66 72 73 81 92 91 81 73 63 52 47 44 39 38 38 35 33 38 38 34 40 53 60 64 75 84 83 84 88 87 86 85 82 85 90 88 90 93 82 63 59 65 64 61 60 59 60 63 65 68 72 73 73 76 76 74 74 77 79 83 85 83 82 83 82 81 84 85
73 65 61 61 60 58 59 58 57 66 77 79 80 83 85 83 76 62 58 67 71 67 76 92 91 83 77 66 51 42 41 39 38 38 37 38 42 42 39 45 54 57 60 71 80 84 87 88 85 82 80 81 85 87 86 91 93 78 61 60 65 62 61 62 63 66 71 73 77 79 77 75 76 75 72 74 79 83 85 85 82 79 80 82 83 84 85
55 54 55 58 57 53 53 54 53 55 57 57 60 65 64 64 66 63 64 71 69 63 74 92 96 89 80 71 59 47 40 43 51 51 47 43 38 39 50 59 56 53 58 68 76 82 84 81 78 80 80 78 81 85 87 87 81 67 60 63 66 66 69 71 74 80 81 79 81 84 82 79 76 75 78 83 86 86 86 85 84 83 83 88 92 90 90
53 55 55 53 50 46 46 49 50 49 50 56 64 66 63 64 66 63 64 67 65 65 75 87 97 97 84 74 71 59 42 46 60 60 54 49 38 36 53 67 61 54 58 68 75 79 78 76 77 80 77 74 79 86 86 81 75 71 73 76 76 79 85 85 84 87 86 82 85 89 88 87 87 87 90 91 89 87 87 88 89 91 91 93 94 90 91
59 59 54 48 47 48 47 47 47 49 58 69 71 63 62 69 67 62 63 67 71 82 88 86 93 101 92 86 87 69 44 46 61 59 52 51 46 40 44 56 64 62 56 60 71 75 72 73 77 79 76 74 77 83 84 82 80 82 86 89 88 89 94 95 91 89 88 87 91 92 90 92 96 95 94 93 91 89 90 90 89 91 93 92 92 91 94
61 55 46 46 54 58 56 55 58 63 71 74 65 54 60 71 67 61 66 69 75 91 95 87 90 97 92 92 91 69 50 60 70 60 49 51 57 55 46 48 65 68 51 48 63 69 66 69 75 77 78 76 75 80 83 83 85 88 89 91 92 91 93 95 93 91 92 93 93 92 91 92 94 94 92 92 90 89 91 92 91 92 93 92 91 93 97
54 47 41 47 61 70 69 65 65 66 68 67 58 51 59 69 70 74 80 78 78 86 89 90 97 94 84 88 89 70 61 72 72 60 58 61 60 57 50 52 69 72 53 47 59 62 62 72 80 81 83 82 80 85 87 86 91 96 93 93 95 93 92 95 95 95 97 96 92 91 91 90 91 92 91 91 91 90 93 94 93 94 96 95 94 97 98
46 39 40 49 62 74 75 66 60 59 59 59 59 62 68 76 82 88 89 86 88 91 88 93 100 91 79 85 86 65 56 66 70 67 72 72 63 58 54 55 64 66 55 56 64 62 63 76 84 84 86 86 83 86 88 88 93 97 95 96 99 98 97 99 97 95 98 99 96 95 93 92 92 91 88 89 91 91 91 92 92 94 96 97 98 98 96
45 45 52 60 66 73 72 61 56 60 59 56 63 71 76 81 88 89 86 86 91 94 93 97 100 93 84 86 81 58 46 56 69 76 79 76 72 72 67 58 58 62 66 73 75 69 71 83 85 81 84 88 85 83 86 90 95 96 96 99 100 97 96 95 92 90 92 94 93 91 90 91 94 94 91 92 94 92 91 93 96 97 97 98 98 96 92
64 68 77 78 71 69 66 59 62 70 67 60 65 71 73 80 86 82 81 86 87 87 93 95 88 79 75 72 66 55 46 49 61 72 77 77 72 68 66 63 59 62 73 84 82 75 79 88 85 80 84 90 88 84 87 93 97 98 99 100 97 92 91 91 89 86 85 85 87 88 89 91 94 96 97 98 97 97 98 98 98 98 97 95 94 92 89
91 91 92 87 79 78 76 71 72 76 67 58 63 72 79 85 80 64 61 69 69 65 70 71 65 64 65 57 52 52 50 47 50 59 70 77 71 62 64 69 66 69 83 87 77 74 83 89 85 84 87 90 88 87 91 97 99 99 100 99 95 91 88 86 85 85 85 89 93 95 95 95 96 97 98 97 96 99 100 98 96 95 93 90 89 88 86
88 90 91 89 88 90 89 82 79 78 69 59 63 69 68 65 60 50 49 56 55 49 50 50 49 51 50 44 45 52 51 49 53 61 70 78 73 61 60 66 71 84 95 85 69 72 84 84 84 88 90 88 88 91 95 99 101 100 99 96 93 91 89 85 85 88 91 94 97 98 97 99 100 99 98 95 93 96 97 93 90 90 88 85 83 80 77
67 75 85 95 97 91 84 77 72 71 69 64 64 67 61 54 52 50 49 53 55 54 53 50 48 49 49 48 51 52 47 48 61 71 72 72 67 57 57 65 74 83 85 77 74 83 84 76 80 91 92 88 91 95 97 100 101 98 96 93 90 89 89 87 87 91 94 96 99 99 98 99 99 99 99 97 94 95 95 90 86 85 82 80 78 75 72
72 69 73 86 86 75 70 67 59 58 65 66 63 66 69 68 65 62 58 59 59 56 55 56 55 56 59 58 55 53 51 56 66 73 70 65 61 59 63 71 75 75 74 77 86 91 82 74 81 91 91 89 93 96 98 101 100 95 93 93 90 88 88 87 88 93 96 97 98 97 96 97 97 98 100 100 97 96 94 89 85 82 79 79 79 76 71
92 81 71 76 74 63 62 64 55 53 63 67 62 60 63 65 66 65 62 60 56 52 57 63 60 58 63 66 60 55 54 57 64 69 63 56 57 60 62 64 65 68 76 85 89 89 84 82 86 91 94 95 97 98 100 100 97 93 92 93 91 89 89 89 91 96 99 99 98 97 97 98 97 97 99 100 99 97 95 93 89 85 82 83 83 80 74
101 86 71 76 78 65 58 62 61 58 58 56 54 54 52 51 52 52 51 54 56 56 60 64 58 54 61 65 61 56 55 55 61 63 55 50 56 61 59 63 72 79 87 94 95 92 91 88 87 92 99 99 97 98 100 99 95 92 92 93 92 89 87 87 91 96 100 99 98 97 97 98 98 98 99 100 100 99 98 95 92 90 90 91 92 90 86
95 74 62 76 85 70 57 61 66 63 56 51 50 51 49 46 45 43 44 53 61 61 59 61 61 62 63 60 59 64 67 62 59 57 51 51 60 64 65 75 86 88 88 94 96 94 91 88 88 96 101 99 96 99 100 97 95 94 91 90 90 89 87 87 89 93 96 98 97 97 98 98 98 97 97 98 99 100 99 96 93 92 93 94 93 91 89
92 74 69 84 87 72 64 68 69 62 57 56 56 55 52 49 47 43 44 53 61 60 58 59 61 67 71 66 62 68 71 64 60 60 56 53 59 70 78 85 86 80 81 89 94 92 89 88 91 97 100 98 97 100 99 96 96 95 92 89 88 87 87 89 89 89 91 94 95 95 95 95 95 96 96 97 99 99 97 94 92 90 89 89 88 85 84
87 78 76 80 75 67 69 76 76 71 66 63 62 61 58 54 50 44 45 54 57 56 57 57 54 59 70 70 63 64 66 62 61 62 56 48 57 77 92 97 94 87 85 87 89 88 84 83 89 98 101 98 98 101 100 98 97 96 92 88 83 81 81 83 83 83 85 87 88 89 90 88 88 88 88 90 93 94 91 89 88 86 83 81 78 75 73
78 77 80 82 80 79 77 76 78 80 77 71 69 67 63 58 51 44 44 52 54 52 57 62 58 56 63 68 66 67 67 60 56 59 58 54 60 77 89 95 95 91 85 83 86 89 86 84 91 100 102 98 98 101 101 98 97 96 91 83 76 73 74 75 74 74 76 76 76 78 79 78 78 79 79 80 81 79 76 74 73 71 68 65 62 61 60
72 75 81 82 82 82 77 74 78 83 79 72 68 64 58 55 50 42 40 49 53 51 55 61 59 58 64 69 69 68 66 61 59 64 64 59 61 74 86 89 87 84 84 87 89 87 87 91 98 101 100 98 100 101 100 99 100 100 93 81 70 66 66 67 66 67 68 67 66 66 67 68 68 68 67 66 65 65 66 66 62 58 57 55 52 51 52
72 79 84 82 79 77 76 77 81 80 72 65 61 56 52 53 50 42 37 43 51 55 60 63 64 67 73 74 69 66 68 68 68 67 61 56 64 78 87 85 82 83 88 92 90 88 91 97 100 100 99 100 100 100 99 100 101 98 89 78 68 63 62 62 62 61 61 60 59 58 59 59 58 56 55 57 60 65 68 66 60 57 56 54 51 50 51
Wind_Speed
32 33 36 36 36 35 34 34 33 34 32 28 24 14 2 2 3 5 7 9 5 4 4 5 3 2 3 3 2 2 3 3 4 5 6 4 2 2 1 1 2 2 1 1 3 4 1 3 2 2 2 2 2 4 8 8 4 3 2 3 2 2 4 3 1 3 4 7 6 5 6 5 3 2 1 4 3 3 3 4 3 2 3 1 2 3 6
32 32 35 36 35 34 33 32 31 30 30 27 19 7 0 1 4 4 8 12 6 5 2 3 3 3 4 3 4 3 2 3 4 4 5 4 0 1 1 1 1 2 1 1 2 2 0 3 4 2 2 3 2 6 10 9 5 1 3 2 1 2 1 2 2 4 5 7 6 6 6 4 2 2 1 2 3 2 1 1 1 0 3 4 4 4 6
32 32 34 36 35 34 34 32 29 25 25 25 14 2 1 3 2 4 7 12 9 5 2 2 1 4 5 4 5 5 3 3 4 4 4 3 0 1 1 0 1 0 2 2 1 1 2 2 4 3 3 4 2 7 10 7 4 4 4 4 3 1 1 3 2 2 3 2 2 3 3 3 2 3 2 1 3 2 2 2 3 0 3 1 3 4 7
32 32 33 35 35 35 34 33 30 23 20 20 11 0 0 2 2 3 6 8 7 2 1 4 3 3 4 4 5 4 3 4 3 3 2 3 4 1 3 0 2 2 4 3 2 2 2 2 3 3 4 4 4 7 9 5 4 5 5 4 4 3 1 2 6 6 6 6 6 5 2 2 4 6 8 4 4 5 4 3 2 4 2 3 4 6 7
32 32 32 34 35 35 33 34 32 23 18 16 7 0 3 2 1 2 3 4 4 3 3 5 4 3 1 1 3 3 4 4 3 2 1 3 6 2 2 5 5 4 3 2 2 4 5 5 4 3 3 3 5 8 7 4 7 8 6 5 4 4 1 2 5 6 7 8 7 5 3 5 6 8 12 8 3 5 1 3 5 4 2 4 7 6 4
31 31 32 33 34 34 34 35 33 25 19 14 5 1 3 2 0 1 1 1 2 2 4 4 5 6 3 1 2 3 4 4 3 3 2 3 5 2 3 8 8 5 2 2 1 4 4 4 4 3 4 5 6 7 6 5 10 9 5 4 4 4 3 4 5 6 6 8 8 7 6 6 7 8 10 8 2 3 6 7 6 6 5 7 8 5 6
30 31 31 32 33 34 34 35 34 27 19 15 13 5 3 2 1 3 3 1 2 3 4 4 5 6 5 2 2 3 4 4 3 3 3 3 5 5 3 6 8 7 4 3 3 2 2 2 4 3 4 5 4 5 5 4 8 9 6 5 2 2 3 4 4 4 4 6 7 8 7 6 8 9 7 4 5 7 6 6 6 7 7 9 8 5 7
30 30 31 32 32 33 33 34 36 30 21 18 17 9 4 2 1 4 4 3 3 3 3 4 4 5 5 3 3 3 4 4 3 2 2 1 3 4 4 3 5 5 5 5 3 1 3 3 3 1 3 5 2 1 3 4 6 7 5 4 4 3 3 3 1 2 4 4 6 7 8 7 9 8 2 2 4 6 5 6 5 4 5 6 3 4 6
29 29 30 31 31 32 31 32 35 33 25 18 12 7 9 6 3 3 2 2 4 2 3 4 3 3 4 4 4 5 6 6 5 3 1 4 3 2 3 2 2 4 5 5 3 4 5 5 6 5 2 2 3 3 2 3 6 6 2 2 3 3 3 3 3 2 4 4 6 7 4 5 9 6 1 2 8 6 4 5 3 2 4 2 1 4 5
28 28 29 30 30 31 30 30 33 33 29 22 9 6 14 12 5 4 3 1 3 3 3 4 3 2 3 4 4 4 5 8 6 3 3 3 5 4 4 4 3 3 3 1 5 7 6 6 6 5 5 5 4 5 5 5 5 4 2 2 1 1 1 2 1 3 5 4 5 3 3 4 9 7 5 6 7 4 2 2 1 2 3 3 3 5 5
27 27 29 29 29 30 28 28 29 30 31 26 11 7 15 13 5 4 4 1 3 3 3 4 3 2 4 5 4 4 6 9 7 2 3 3 1 1 4 6 4 1 4 4 5 6 6 6 5 5 5 6 5 6 8 9 8 6 4 3 3 4 4 3 2 3 5 5 2 4 2 5 8 6 6 7 5 4 2 1 2 3 1 3 4 3 3
26 27 27 28 28 29 28 27 27 26 27 24 15 11 17 16 6 2 5 1 4 3 3 2 2 3 6 5 5 5 6 7 6 3 2 4 5 5 4 4 3 1 5 5 2 2 2 1 1 2 3 5 7 7 9 11 10 8 8 6 5 5 5 4 3 3 5 3 2 1 6 7 5 3 3 5 7 6 6 4 3 3 1 4 4 2 1
25 26 26 27 27 27 27 27 26 25 23 22 18 16 19 18 8 2 4 1 3 2 2 2 3 4 7 6 5 5 5 6 6 5 3 3 5 7 7 5 3 1 3 2 3 5 3 3 4 4 4 6 7 6 6 8 9 9 8 9 8 7 5 4 3 3 3 1 3 5 7 4 3 4 5 3 3 4 2 2 2 1 3 6 5 4 4
24 25 25 25 26 26 26 25 26 25 23 20 18 17 20 20 11 2 1 2 2 3 2 2 5 7 8 7 5 4 5 6 7 6 4 3 3 5 5 5 5 5 2 2 4 5 3 2 4 4 5 5 5 4 5 7 7 7 7 7 8 8 5 3 4 4 4 4 4 3 5 6 5 4 4 4 3 4 5 3 3 3 2 5 6 4 5
23 24 24 24 24 24 25 24 24 24 23 20 16 15 19 22 16 6 1 2 1 3 3 3 5 6 6 5 5 4 4 5 5 5 4 3 3 4 5 8 11 8 1 4 3 3 3 2 3 3 3 3 3 4 5 6 6 6 5 4 4 6 7 6 5 3 3 4 4 3 4 6 5 4 4 6 2 4 6 4 2 5 4 3 4 2 4
22 23 23 23 23 23 23 23 23 23 23 21 16 14 17 21 20 13 4 1 1 1 2 4 5 4 3 3 4 4 3 3 4 4 4 5 6 5 7 11 14 9 4 4 2 3 3 1 1 1 2 1 2 4 4 4 5 6 5 6 7 4 2 4 4 2 2 3 4 4 4 5 4 5 7 8 5 1 5 3 3 5 4 3 2 1 3
22 22 22 22 22 22 21 21 22 22 23 23 18 13 15 20 23 18 6 2 1 2 1 6 6 3 3 4 4 4 3 3 3 2 2 4 6 7 9 10 10 6 5 4 2 3 2 1 1 1 3 3 2 3 4 3 4 6 7 8 8 6 4 3 2 3 1 2 3 3 3 3 3 4 6 8 6 4 6 1 5 5 4 4 3 3 4
21 21 22 22 21 21 20 20 21 20 22 24 18 10 11 19 23 18 7 2 2 2 2 9 8 1 2 3 4 2 2 3 3 2 2 3 3 5 8 7 5 5 5 3 2 1 2 1 1 2 3 3 2 3 4 2 3 5 6 6 5 4 4 2 1 2 1 1 2 3 2 2 3 4 6 6 5 6 4 3 6 4 5 5 4 4 5
20 20 21 21 20 20 19 19 20 19 19 22 18 10 9 15 21 19 10 2 1 1 6 11 6 1 3 4 3 2 3 2 1 2 2 3 3 5 7 4 2 4 3 3 2 1 1 1 1 1 1 3 2 2 3 2 2 3 4 4 3 3 3 3 2 1 1 2 2 2 2 2 3 5 5 3 3 2 2 4 4 4 5 5 4 5 5
20 19 20 20 19 18 18 18 19 19 18 20 20 14 9 10 15 18 13 5 2 3 6 5 3 4 6 3 1 2 3 3 1 2 1 3 3 4 5 3 3 4 3 3 3 1 0 1 2 1 1 2 1 2 3 3 3 2 2 2 2 2 2 2 2 2 1 0 1 1 1 2 3 2 4 3 1 2 4 4 4 4 5 5 5 5 4
20 19 19 20 19 18 17 17 18 19 18 18 19 16 12 10 11 16 17 11 3 2 3 4 9 14 13 9 9 9 7 5 4 1 2 3 3 2 2 2 3 2 2 2 2 2 2 1 2 2 1 1 2 2 2 3 4 3 1 1 2 2 1 1 2 1 1 1 2 2 2 2 3 2 2 2 3 3 4 4 4 4 3 3 3 4 5
19 19 19 20 19 17 16 16 16 18 17 17 18 16 15 13 12 16 20 14 3 4 9 14 18 19 16 12 12 13 13 15 15 10 4 2 2 0 2 1 3 1 0 2 1 2 2 2 2 2 2 2 1 1 1 2 3 4 3 2 2 0 1 2 3 2 2 4 5 4 4 4 4 3 4 4 4 3 1 2 3 3 3 3 3 4 6
19 19 19 19 18 17 16 15 16 16 16 16 17 16 17 17 15 18 20 12 5 8 12 13 12 11 9 12 16 18 14 11 15 16 10 4 2 2 2 2 2 1 1 3 3 1 0 1 1 1 2 2 2 2 2 2 3 3 3 2 3 2 1 1 3 3 4 4 4 3 4 5 5 4 4 4 3 3 1 1 2 4 4 4 4 5 7
18 18 19 18 17 16 15 15 15 16 16 15 15 16 18 17 16 18 17 8 4 6 6 5 4 2 5 14 20 19 16 12 12 15 13 9 5 2 2 3 2 1 1 3 4 3 1 1 1 1 2 2 1 1 3 4 3 3 2 3 3 3 1 0 2 3 3 4 4 5 6 8 7 4 3 3 3 4 3 3 4 5 5 6 6 6 7
18 18 18 17 17 16 15 15 15 16 16 15 14 15 17 16 14 15 12 5 2 2 3 3 3 3 9 19 20 16 17 19 19 20 16 10 11 7 5 6 4 3 4 4 4 4 2 1 1 2 3 2 1 2 3 4 2 0 1 2 3 3 3 3 3 4 3 5 7 8 9 8 6 3 3 3 3 4 4 4 5 5 6 6 7 6 6
18 18 17 16 16 16 15 15 15 15 15 15 15 16 18 17 14 12 10 8 4 2 1 2 5 11 20 24 20 17 19 22 21 21 18 12 11 14 12 7 4 4 3 2 3 4 3 2 2 2 3 3 2 2 3 4 3 1 2 4 4 4 4 4 4 5 5 7 8 8 8 7 5 4 5 5 4 5 6 5 5 5 6 7 7 7 7
18 18 17 17 16 16 16 15 15 15 15 15 16 18 18 16 9 6 8 7 3 1 2 1 4 13 21 20 18 20 22 21 21 20 20 18 14 13 15 10 4 2 2 2 1 2 3 1 2 3 3 2 2 2 3 3 2 2 4 5 4 4 5 4 4 5 6 6 5 4 5 6 6 5 5 5 5 6 6 6 6 6 7 7 8 9 8
18 18 18 18 17 17 16 15 15 14 15 16 18 17 13 8 3 2 5 6 3 2 3 3 5 11 15 15 18 23 22 21 21 20 18 17 15 9 9 9 4 2 3 2 1 1 2 2 2 2 2 2 1 2 2 1 1 2 4 5 4 4 5 4 4 4 6 8 7 4 3 6 7 6 6 6 6 6 7 8 7 7 8 8 8 8 9
18 18 18 18 17 16 15 14 14 13 13 15 16 11 6 6 6 4 3 5 5 4 3 4 5 6 6 11 20 23 22 22 21 17 11 8 7 5 1 5 4 3 3 3 2 2 2 3 2 2 2 2 1 1 1 1 2 4 6 7 5 5 6 6 6 7 7 8 8 5 4 7 8 8 8 7 6 7 9 9 7 8 8 7 8 8 8
19 19 18 17 17 15 13 13 12 11 11 12 11 7 4 5 6 7 8 5 3 3 1 2 3 4 5 8 14 17 20 23 19 11 5 4 5 3 2 3 3 2 2 2 2 2 2 2 2 2 2 4 3 1 2 2 3 5 6 7 6 6 6 7 7 7 7 7 6 6 6 8 8 8 8 7 7 8 8 7 7 8 8 9 9 7 6
20 20 19 18 17 15 13 12 11 9 9 8 4 2 1 0 1 4 7 7 2 1 0 1 2 4 5 4 6 10 18 20 15 8 7 7 6 4 2 2 2 2 2 1 2 2 2 2 2 2 3 4 3 2 2 2 3 5 5 6 6 6 7 7 7 7 8 8 6 6 7 7 6 7 7 6 7 7 6 7 9 11 11 12 11 8 9
22 20 19 18 17 15 13 11 10 9 9 7 4 4 4 4 3 2 5 6 4 2 1 1 2 3 2 4 7 11 15 13 9 7 8 7 4 2 2 2 2 3 3 2 1 1 2 3 3 3 3 3 3 1 2 3 5 8 7 5 6 7 7 8 7 7 7 7 6 7 9 7 6 7 8 7 7 8 7 8 12 14 14 14 12 12 14
22 19 18 17 17 15 12 9 9 9 9 6 7 9 8 6 6 6 4 4 5 3 2 2 1 3 2 3 6 9 9 6 4 5 5 5 4 3 3 3 2 2 2 2 2 2 2 3 3 3 3 3 3 1 3 4 7 10 10 7 7 7 7 7 7 6 6 6 5 7 9 9 8 9 9 7 8 9 9 10 12 13 11 8 8 9 10
20 18 18 16 15 13 10 7 6 6 5 5 6 8 6 5 6 5 4 4 3 2 1 1 0 2 3 3 4 5 5 4 2 2 3 5 5 3 3 3 3 2 2 2 2 2 1 1 2 2 3 1 2 1 3 5 6 8 8 8 7 6 6 7 6 6 6 5 5 7 8 9 9 9 8 7 8 9 10 9 9 9 7 5 6 8 6
20 19 17 15 14 12 7 6 4 2 2 4 7 9 7 5 4 3 3 4 2 1 1 1 1 1 2 2 3 4 5 3 2 2 2 4 5 3 1 2 3 3 3 2 1 1 2 2 2 2 3 1 1 2 4 5 7 9 9 9 8 7 7 8 7 7 7 6 6 7 7 7 8 8 7 6 6 7 7 7 6 6 5 6 7 7 4
20 19 16 11 9 7 2 3 3 2 1 5 11 12 9 5 4 4 5 5 4 2 1 0 1 2 2 1 3 4 4 3 2 2 1 2 4 3 0 0 2 3 3 1 1 3 3 1 2 1 3 2 3 4 4 5 8 10 9 9 8 7 9 11 10 9 9 8 6 5 5 5 5 5 5 5 5 5 6 6 6 5 6 8 7 3 0
19 18 13 6 3 5 5 5 4 3 7 12 15 13 8 5 4 4 4 4 6 5 2 1 2 3 2 2 3 2 2 2 2 2 2 2 2 2 1 0 2 3 2 2 2 3 2 1 1 2 3 3 3 4 5 6 9 9 7 7 7 7 8 9 8 7 7 6 3 3 4 4 5 5 5 6 6 6 6 7 6 6 7 8 4 2 3
19 14 9 7 4 3 2 2 6 11 15 14 12 8 4 3 1 2 2 2 3 4 3 1 3 3 2 2 3 3 3 2 2 2 2 2 2 2 1 1 2 2 2 3 4 2 0 1 1 2 3 3 3 5 6 7 8 7 5 4 5 6 6 5 4 5 5 4 5 6 6 6 7 6 6 7 8 7 6 7 6 6 6 5 1 4 4
19 14 10 8 4 0 2 7 15 18 14 8 4 2 1 1 1 1 1 1 1 1 1 1 3 3 3 3 4 3 1 1 3 2 2 2 2 2 1 1 2 1 1 3 4 2 2 1 2 2 3 3 4 6 7 7 7 6 4 3 4 4 3 4 6 6 6 4 5 5 5 5 6 7 6 7 7 6 5 5 4 3 1 3 7 7 5
19 14 8 5 3 6 13 20 21 15 6 1 1 1 0 0 0 1 1 0 1 1 2 2 3 3 4 3 2 3 1 1 2 2 3 2 2 1 0 1 2 1 1 3 3 1 0 1 2 2 2 4 6 7 8 7 5 3 3 3 3 3 5 5 6 7 6 5 5 5 4 5 5 6 6 6 5 6 6 5 6 8 7 9 13 12 11
16 11 6 6 11 18 23 21 13 5 1 0 0 0 0 1 2 1 1 1 1 1 2 1 1 2 1 0 1 2 2 2 1 1 1 2 2 1 0 2 1 1 1 4 3 1 1 1 2 2 3 5 7 8 8 6 4 2 3 3 3 5 6 6 7 9 8 7 5 5 7 8 7 7 6 6 6 7 5 5 8 12 11 11 15 17 18
17 15 13 16 19 19 15 9 3 0 0 1 1 1 1 1 1 1 1 1 1 1 1 1 0 2 3 2 1 2 3 2 1 2 1 2 2 1 1 1 1 1 2 5 2 2 1 1 2 3 4 6 8 8 7 5 3 2 2 3 5 7 6 6 8 10 11 10 8 7 9 12 11 10 9 10 11 10 8 8 10 13 14 17 20 22 22
18 14 10 10 10 6 3 1 0 1 1 1 0 1 2 1 1 2 1 1 0 0 1 0 1 1 2 2 2 2 1 1 1 1 0 2 2 1 1 1 0 2 4 2 1 2 1 2 2 3 5 6 7 7 6 5 3 3 4 6 9 10 9 9 10 11 13 14 14 13 13 14 14 14 15 16 14 13 13 14 16 19 22 23 23 22 22
15 9 2 2 2 1 0 1 1 1 0 1 1 1 1 2 2 2 2 1 1 1 1 1 1 1 2 2 2 2 1 1 1 0 1 2 2 1 0 1 3 3 2 1 1 0 2 2 2 4 5 6 7 6 5 4 4 4 5 7 9 11 11 11 11 11 11 13 16 17 18 17 16 17 19 19 17 15 15 17 21 25 27 27 26 25 26
9 4 1 2 2 1 0 1 1 1 1 2 2 2 2 3 3 4 3 3 2 1 1 2 3 1 2 3 1 1 1 1 0 1 1 1 1 1 2 2 2 1 1 1 2 1 2 3 3 4 6 8 8 6 4 4 5 4 5 7 8 9 8 9 9 8 8 10 14 16 16 15 15 16 18 19 20 20 19 19 22 25 27 27 26 25 26
3 2 1 2 3 1 0 1 1 1 1 1 2 2 2 3 4 5 3 1 3 3 3 3 3 1 2 3 1 1 1 0 0 1 1 0 1 2 2 0 1 1 1 2 2 2 3 4 3 3 5 7 7 5 4 4 4 4 5 6 7 7 7 8 8 8 8 10 13 14 14 14 14 15 16 19 22 23 22 23 25 26 27 25 23 23 25
2 2 1 0 2 2 1 1 2 2 2 2 3 4 4 5 5 3 0 2 3 4 2 1 1 1 1 1 1 2 1 0 0 2 2 1 1 2 1 2 1 1 1 1 2 4 4 4 4 3 3 4 4 4 4 4 4 4 5 5 5 6 6 7 8 8 8 9 11 12 12 13 14 15 16 18 20 21 22 24 26 27 26 24 23 24 26
2 2 1 1 1 2 2 2 2 3 3 3 4 5 4 4 4 3 1 1 3 3 2 1 1 2 2 2 1 1 2 1 1 2 2 1 0 1 2 1 2 2 1 2 3 4 4 4 4 3 2 3 3 3 3 4 5 5 4 4 5 5 6 6 6 7 7 8 8 9 10 12 13 14 15 16 17 19 21 23 25 26 26 26 25 25 25
3 2 1 1 1 2 3 2 4 5 5 5 5 5 4 4 5 4 2 1 3 3 3 2 1 0 2 2 1 1 2 1 1 2 2 1 0 0 0 1 2 3 2 3 4 3 4 5 4 3 2 2 1 2 3 3 4 4 3 3 5 6 7 7 7 7 8 9 9 9 10 12 13 14 15 15 15 16 18 22 24 25 25 25 25 24 23
3 2 2 2 2 3 3 3 3 4 5 5 5 5 4 4 5 4 3 3 3 2 1 1 1 1 1 1 0 1 2 2 1 1 1 2 2 1 1 2 3 4 4 4 4 4 5 4 3 3 3 2 1 1 2 2 2 5 4 1 6 9 8 8 9 9 9 10 11 11 11 12 12 13 14 14 15 16 19 21 23 23 23 24 25 24 24
3 2 2 3 4 4 2 2 3 5 5 6 6 6 5 4 4 5 3 3 4 3 1 0 1 0 1 1 0 2 2 2 1 1 2 2 2 2 1 3 5 4 4 5 5 5 4 3 2 2 3 3 1 0 1 2 3 6 7 2 7 10 10 9 9 9 8 9 11 12 11 11 12 13 13 15 16 17 17 18 19 20 22 23 24 24 24
2 3 2 3 4 4 4 4 4 4 5 5 6 5 4 4 5 5 3 3 4 1 2 2 2 2 1 2 2 1 1 1 1 2 2 2 1 2 4 5 5 4 4 5 5 4 4 3 3 3 3 3 2 2 2 2 4 6 7 5 5 9 10 10 10 10 10 9 10 11 11 10 10 11 13 14 14 13 11 11 13 16 18 20 22 23 23
Wind_Direction
4 6 10 10 9 9 8 10 9 5 0 358 360 0 18 83 287 287 6 357 324 63 43 325 3 41 316 323 335 328 324 331 347 355 353 345 6 39 34 27 351 315 354 356 352 15 321 271 277 255 290 307 249 320 347 342 351 68 67 293 271 85 68 62 309 286 310 315 314 352 28 59 74 10 44 85 81 103 161 211 212 227 253 191 118 250 266
3 5 9 10 10 9 8 8 9 11 7 359 356 360 7 311 269 271 7 4 16 85 55 328 1 332 319 348 340 325 331 339 344 350 335 309 229 105 308 332 348 320 27 40 337 4 13 297 307 306 303 290 297 19 10 351 336 271 196 191 242 296 27 78 16 329 334 344 345 348 356 22 44 295 298 83 77 89 164 276 63 10 245 164 144 239 256
3 4 7 10 10 9 9 8 7 12 9 357 352 357 268 335 294 268 339 6 38 96 141 101 47 329 346 359 334 330 337 325 326 322 303 293 153 155 251 352 107 317 33 31 295 196 149 256 303 329 315 288 329 20 7 0 349 275 219 147 130 210 194 128 132 253 260 280 286 265 289 318 303 265 265 60 62 54 51 53 67 275 265 173 150 238 270
4 5 5 9 10 9 9 8 6 10 8 355 346 275 202 15 12 309 325 6 40 79 100 80 69 346 356 344 321 329 324 304 318 334 316 347 21 351 251 334 53 22 27 17 324 338 355 309 325 351 333 316 339 344 337 356 27 351 351 32 76 98 88 149 157 182 200 196 215 222 214 286 286 285 292 302 96 94 75 72 159 202 242 293 232 226 273
6 5 4 7 10 10 9 9 8 10 8 357 342 48 47 52 68 8 332 333 10 18 13 44 35 323 304 291 282 292 309 309 323 332 325 29 33 10 324 20 16 352 10 24 334 340 350 356 8 5 341 321 319 319 319 357 20 6 355 1 52 85 327 248 166 188 203 188 207 228 220 251 259 271 285 287 120 117 177 242 225 173 124 286 252 202 238
6 6 5 6 9 10 11 11 11 13 14 13 26 71 25 44 123 36 51 294 337 4 332 350 357 326 296 236 255 280 297 290 293 317 325 30 37 30 10 14 9 358 27 101 34 352 358 3 355 353 349 336 337 333 322 355 16 10 347 351 71 113 258 248 193 216 214 190 205 216 212 240 250 247 264 275 259 225 233 231 212 153 154 249 250 208 219
7 6 6 6 8 11 12 12 13 16 22 39 60 56 356 36 9 337 13 29 223 237 289 326 353 339 328 324 293 286 299 290 298 349 359 10 28 61 57 357 354 6 26 88 81 27 21 348 326 344 354 338 348 348 314 330 21 20 352 339 44 121 267 256 222 247 240 211 219 220 214 235 252 249 243 231 237 240 233 235 216 181 201 238 250 256 248
7 7 7 6 8 11 12 14 16 17 23 45 60 52 7 30 353 322 357 356 292 258 313 351 4 348 350 351 323 330 352 342 322 342 64 63 13 57 78 1 352 20 35 69 95 150 157 171 246 292 357 340 337 330 301 314 349 360 352 333 355 2 280 260 267 320 292 262 244 235 229 235 249 256 222 159 257 265 246 239 217 200 241 247 246 283 274
6 7 7 6 8 10 12 15 17 19 26 42 58 38 8 354 300 314 20 333 326 335 336 354 17 4 4 359 335 343 356 348 323 301 84 108 105 98 109 93 22 30 46 79 139 205 175 175 216 224 223 266 259 251 275 317 323 330 344 319 345 353 298 315 21 335 285 268 253 253 270 289 275 268 172 233 272 273 243 239 226 220 255 262 282 273 258
6 7 7 6 7 9 11 14 17 21 30 39 44 7 6 1 332 359 53 277 336 9 352 359 37 34 357 344 340 349 343 345 355 339 342 74 109 128 128 115 78 19 5 106 190 208 200 203 225 223 219 240 247 252 268 275 273 278 284 264 222 173 257 318 2 279 276 262 250 268 27 335 282 253 192 209 243 249 267 310 301 189 185 169 203 236 236
7 7 7 7 7 8 10 13 15 20 27 30 26 358 5 2 328 351 48 34 319 353 25 27 38 4 335 337 344 349 346 352 7 7 312 331 356 105 103 104 97 359 269 238 216 217 214 212 215 210 222 249 257 261 270 269 254 237 237 250 218 184 203 226 195 220 261 268 319 30 4 265 254 228 181 174 183 190 193 199 212 212 168 136 164 203 267
7 7 7 7 7 7 9 11 13 18 24 26 28 21 12 5 335 345 63 73 290 339 40 29 4 323 315 328 347 344 349 355 345 323 296 312 318 342 28 66 74 277 244 241 275 300 255 243 274 263 250 260 264 260 258 260 257 240 224 227 236 221 212 220 190 188 238 257 61 346 266 245 227 232 213 168 143 149 161 165 204 231 174 112 124 146 259
6 6 6 7 7 8 9 10 11 13 18 24 30 27 19 16 12 45 79 89 273 335 25 308 314 340 327 330 351 345 346 351 338 343 10 348 346 3 7 8 6 289 224 200 53 46 33 357 350 341 327 314 303 291 276 272 268 254 229 214 219 221 212 212 203 192 217 191 165 217 256 264 256 278 274 228 136 113 152 239 294 269 153 134 145 194 220
5 5 6 6 7 8 8 9 10 9 12 19 24 27 27 25 22 1 57 64 278 296 351 323 328 349 338 333 352 352 349 355 351 357 1 341 1 21 13 359 328 288 245 75 48 51 56 18 10 355 335 338 340 327 317 308 293 277 265 236 216 207 191 195 223 217 207 209 210 242 310 310 275 256 263 254 219 166 169 212 260 267 194 145 152 201 234
5 4 6 5 5 7 7 8 9 8 8 10 18 33 33 25 20 6 356 85 296 310 13 11 318 326 328 330 1 11 356 357 353 342 332 330 358 17 9 351 330 314 28 80 53 52 66 63 38 355 334 357 345 310 312 320 312 305 311 312 263 223 196 184 207 219 192 211 244 288 298 277 262 268 310 329 337 143 131 124 250 264 252 181 162 209 263
4 3 4 4 4 5 6 7 8 8 8 7 13 31 34 26 20 11 351 117 114 310 34 9 318 313 333 338 360 15 6 2 355 340 340 347 350 353 353 343 333 335 43 76 72 70 63 76 123 203 251 238 271 283 304 319 308 309 334 2 358 317 218 153 169 212 135 171 223 250 241 239 264 302 322 339 344 99 100 79 274 271 280 267 228 264 276
2 2 2 2 2 3 4 5 6 7 8 6 6 18 32 29 20 8 356 84 46 247 112 22 350 341 24 357 335 350 5 5 3 1 346 333 335 343 345 338 333 347 37 47 30 70 85 134 139 181 246 237 244 275 294 302 302 318 336 356 7 2 10 75 148 222 198 150 218 251 232 228 279 311 316 317 326 47 77 42 262 265 280 270 238 241 262
0 360 360 0 1 2 3 4 4 5 5 4 2 12 31 29 22 15 10 36 3 250 315 5 360 18 35 336 290 305 357 3 6 6 328 318 347 351 334 327 336 351 14 40 31 60 115 192 191 177 240 265 267 259 270 287 306 325 341 351 3 3 354 18 120 231 221 167 239 263 262 267 282 285 285 298 345 46 85 215 241 256 272 256 202 204 238
358 358 358 359 359 360 1 1 1 2 4 3 3 7 21 21 20 20 17 15 65 261 309 333 344 8 341 324 291 310 352 3 38 58 4 327 323 328 316 311 3 350 351 55 55 63 131 260 256 149 241 278 296 283 285 313 326 333 356 359 355 356 340 337 360 332 226 182 209 256 297 280 254 270 289 321 33 55 211 232 252 254 251 240 213 217 228
356 356 356 357 356 357 358 358 358 359 2 4 2 357 354 7 16 19 18 4 306 292 293 305 339 342 336 330 276 304 340 358 23 95 114 268 285 348 350 338 356 346 344 28 19 340 355 302 306 4 246 264 338 353 317 321 317 323 13 1 309 320 326 311 322 319 290 275 211 219 284 243 223 275 332 360 46 226 236 261 281 248 224 226 240 250 239
353 352 352 353 353 353 355 355 356 356 356 1 2 354 347 360 18 15 5 350 323 269 275 300 318 316 305 282 264 264 255 241 244 215 188 248 283 51 64 290 298 330 358 13 352 328 355 341 315 340 345 316 351 352 337 336 311 293 9 10 291 322 16 272 284 312 306 276 238 212 221 236 220 228 282 260 253 259 249 254 276 275 254 237 248 274 260
349 349 349 350 349 349 350 350 351 352 352 356 359 354 346 349 5 7 356 345 304 252 280 294 301 300 296 297 302 298 276 255 254 258 249 267 319 140 159 251 286 257 78 55 39 345 360 360 325 334 337 323 317 292 311 320 286 290 340 346 269 317 61 226 247 261 236 226 231 235 242 242 228 222 224 228 251 272 245 217 253 271 259 220 208 264 269
347 346 346 347 346 345 346 346 346 348 349 351 354 351 343 337 342 354 353 343 310 291 291 297 305 304 320 345 342 337 330 294 269 270 264 246 295 292 219 230 265 248 106 121 145 162 223 211 273 320 288 283 303 310 296 263 241 261 299 287 241 234 261 224 230 272 291 272 260 272 286 289 287 259 218 202 219 230 175 153 231 241 238 225 217 238 255
344 344 344 345 345 342 342 344 343 341 342 346 348 342 335 328 332 345 349 348 342 329 318 329 346 344 354 346 335 334 346 346 320 308 293 251 232 307 298 234 215 36 334 216 178 141 149 193 233 272 243 253 300 294 260 256 253 248 266 292 283 262 280 334 241 267 297 289 288 307 305 297 295 271 221 208 225 227 205 200 224 238 239 239 244 252 261
341 342 342 342 342 340 338 337 337 336 337 340 339 334 329 325 327 339 342 333 318 330 326 325 308 294 337 338 331 331 342 342 339 339 325 265 221 215 241 239 220 223 245 222 154 115 128 184 200 242 239 230 220 217 224 238 261 311 291 292 286 283 318 329 279 253 254 262 279 296 293 278 265 245 249 263 262 265 261 239 237 253 256 255 262 265 265
339 339 338 337 337 335 333 331 331 331 331 331 332 330 325 320 317 320 322 317 305 304 325 281 280 313 334 337 331 332 338 335 333 334 329 302 248 230 231 239 238 219 201 140 115 136 158 163 174 214 237 232 203 196 216 234 244 249 249 246 245 263 290 288 276 287 290 280 289 307 308 296 283 275 283 284 272 275 283 277 270 270 267 268 270 263 254
338 337 335 334 333 331 329 328 327 328 328 327 325 321 317 315 310 297 305 318 335 5 345 274 273 314 326 324 319 327 332 330 328 326 323 322 310 266 235 223 223 197 133 71 43 123 119 122 201 204 220 239 229 214 229 247 252 245 253 251 242 255 265 257 266 291 285 276 289 308 306 298 294 283 277 279 282 287 290 290 289 280 271 270 270 269 266
337 336 334 332 330 328 327 326 324 326 329 326 320 318 319 323 320 244 277 295 281 253 296 281 286 310 314 309 314 326 331 330 329 327 320 324 332 311 238 205 183 141 136 132 124 131 145 201 217 214 224 246 280 254 236 272 331 234 244 243 216 220 245 249 247 253 256 265 273 264 248 271 282 279 267 263 271 278 277 276 275 267 264 264 263 270 279
335 334 332 331 329 327 325 324 324 327 330 327 325 333 15 50 52 51 348 308 279 258 282 305 301 304 305 306 312 322 333 338 335 329 320 323 352 12 115 160 156 153 151 140 137 174 210 213 214 231 211 164 171 269 231 205 234 236 244 245 225 220 240 248 249 254 259 262 259 248 249 268 276 278 274 269 265 265 267 269 264 258 259 262 261 264 266
332 331 330 330 330 329 329 327 327 328 328 329 335 351 38 56 50 50 41 17 300 242 268 330 301 294 300 300 301 312 330 336 332 324 318 321 328 353 77 132 150 142 123 118 152 183 215 235 241 247 201 155 156 256 231 204 244 254 247 245 243 247 254 255 253 256 261 261 255 252 259 265 270 277 275 268 262 261 265 270 267 262 264 266 264 262 257
329 329 330 332 334 336 334 329 329 326 318 319 342 37 85 101 75 58 45 35 15 237 62 320 278 298 307 282 278 308 323 326 324 327 341 338 319 290 232 187 197 175 153 168 192 182 193 211 229 260 229 170 162 227 229 209 262 266 240 225 239 256 264 266 263 258 261 270 276 276 273 270 273 282 280 269 263 265 268 272 271 269 269 270 269 268 268
331 331 333 334 335 336 333 326 322 318 309 293 266 250 246 237 243 311 19 12 330 271 111 25 302 308 313 283 295 321 329 327 330 349 352 345 337 308 279 267 242 220 191 165 180 212 200 189 200 244 235 163 139 226 235 208 247 263 258 250 256 264 267 271 272 267 266 272 283 290 291 281 261 261 270 277 280 279 276 276 278 276 274 274 277 274 268
335 331 330 330 331 329 326 318 309 310 311 298 277 279 282 274 275 287 305 311 294 258 161 102 321 283 274 288 308 333 349 346 342 358 350 333 342 344 310 298 290 262 225 171 196 239 219 178 195 246 237 159 130 217 244 228 247 266 274 277 275 274 277 279 279 274 267 262 256 264 275 276 270 270 278 285 287 286 282 281 284 284 279 276 277 277 271
337 332 327 325 325 321 309 294 292 306 318 307 293 302 314 300 283 273 237 228 259 282 213 129 110 274 288 315 317 333 6 9 330 343 338 320 328 337 298 296 328 314 247 206 199 243 269 206 204 250 257 196 130 187 256 262 276 287 293 291 286 286 290 290 283 273 270 267 257 252 257 266 275 281 285 287 288 290 291 290 290 289 284 274 272 274 267
338 332 326 324 327 324 294 250 242 267 299 295 301 315 321 299 278 271 230 221 214 46 273 192 156 260 307 332 297 304 349 10 309 287 307 301 307 312 248 278 324 300 252 225 193 245 255 210 185 234 269 256 171 218 247 277 301 306 301 297 298 301 303 298 292 287 285 278 269 268 268 268 271 279 287 293 294 297 300 300 297 292 284 277 276 273 256
337 333 331 332 343 359 27 164 156 122 325 307 313 315 307 276 256 261 259 249 237 220 227 245 191 211 226 245 266 296 339 350 290 285 314 305 306 315 132 206 296 271 241 234 279 260 253 197 161 259 283 252 223 240 254 283 298 296 290 291 297 303 302 294 288 290 291 280 268 279 294 295 293 295 298 300 298 298 302 305 304 299 286 274 273 283 50
339 336 341 353 28 53 68 87 79 21 320 313 317 312 288 252 245 256 252 243 235 222 191 125 244 228 203 206 247 287 312 295 292 323 330 296 292 306 336 292 271 269 291 317 268 246 248 192 152 236 264 248 245 266 274 283 290 286 279 282 295 306 302 291 287 297 305 307 324 345 345 344 337 325 312 308 307 304 300 294 286 281 277 271 265 99 109
345 347 9 34 44 62 85 56 354 333 316 307 312 311 274 224 211 243 219 188 207 208 173 163 244 242 193 202 247 254 243 263 332 352 299 280 296 309 329 312 260 271 308 291 256 234 39 29 192 228 254 266 281 284 282 286 294 293 283 279 290 299 303 308 332 353 355 1 4 354 348 342 332 322 314 311 307 299 290 283 274 265 261 253 175 113 134
358 5 15 19 16 334 269 316 326 327 320 302 288 285 235 159 97 268 239 156 159 199 173 184 233 225 188 209 266 272 212 71 9 333 277 295 315 293 296 318 293 303 331 289 281 312 7 309 276 262 261 278 300 302 301 306 307 305 296 284 289 308 341 8 19 20 17 5 349 341 333 319 314 316 316 310 312 321 319 310 314 319 293 123 104 94 99
7 9 3 351 326 305 312 319 323 327 332 304 184 162 98 106 183 196 200 174 187 209 195 193 225 225 185 184 272 293 242 92 345 277 246 261 271 238 251 285 274 299 318 274 272 313 86 269 299 315 300 307 319 321 318 314 309 310 310 299 316 21 47 40 26 21 16 5 355 350 339 323 321 330 329 326 355 18 5 359 28 40 59 91 91 81 79
355 353 330 299 302 307 312 319 325 332 10 83 202 73 62 257 247 222 212 240 264 234 199 174 353 322 280 182 340 299 259 247 245 177 196 269 272 228 250 269 266 48 310 258 255 68 74 305 309 312 309 317 319 317 314 311 307 324 333 325 7 48 53 46 35 30 25 21 17 15 16 15 11 4 2 18 45 41 13 21 56 59 57 68 76 79 83
321 312 297 293 298 302 307 318 339 47 67 35 25 312 257 240 261 291 275 242 233 238 230 187 167 271 273 289 308 261 254 276 31 80 63 288 269 213 211 266 18 73 247 251 260 47 38 306 289 285 300 315 315 314 319 322 318 333 1 40 63 59 51 52 50 42 38 38 34 27 31 32 24 16 28 50 61 53 36 39 59 65 63 66 75 83 88
323 317 299 287 292 298 302 305 290 114 65 63 63 309 306 301 302 301 289 284 323 264 236 258 334 310 313 328 310 273 269 39 65 84 229 264 268 286 348 332 263 217 237 253 40 43 305 292 305 299 307 320 321 321 331 340 350 24 54 71 74 67 58 58 59 52 46 45 43 40 41 41 35 34 43 53 58 55 48 49 59 68 70 71 74 78 81
336 338 331 249 267 291 317 291 244 150 182 244 162 176 274 283 284 282 273 266 268 244 222 171 81 6 317 303 294 298 319 27 63 39 262 262 276 331 357 259 246 239 250 332 33 317 260 265 280 292 311 329 332 329 340 1 22 48 65 66 64 63 60 58 57 53 45 42 44 45 47 47 46 47 48 48 50 54 54 54 62 70 73 72 71 71 74
342 343 17 345 316 302 152 318 318 209 223 226 189 185 223 248 254 256 244 207 174 181 191 141 121 104 293 285 283 300 295 289 308 260 238 262 302 279 225 236 257 279 326 329 327 322 315 306 294 306 329 340 338 337 356 19 25 44 69 66 58 57 59 58 56 52 41 38 42 45 46 45 47 50 51 50 52 55 57 58 63 69 73 72 71 71 73
318 282 11 352 316 295 192 289 289 258 234 240 235 245 276 274 260 257 252 152 144 161 169 150 127 103 301 291 297 306 293 106 292 261 237 189 279 261 239 250 13 7 348 328 318 297 290 290 296 323 340 338 335 342 11 23 20 38 70 74 66 63 64 64 61 56 47 45 47 48 47 46 46 49 53 54 54 55 59 63 67 71 72 71 70 70 72
286 299 7 27 296 301 262 214 234 245 260 288 294 293 298 296 283 274 250 125 155 166 158 110 67 9 292 279 295 306 307 105 223 268 251 173 237 271 332 48 21 263 228 280 272 260 268 289 304 319 332 333 337 354 13 14 13 34 67 80 78 71 69 70 70 66 61 57 55 54 54 53 51 52 55 55 55 55 59 65 69 72 73 73 73 73 72
285 328 359 170 256 269 237 241 301 310 296 299 306 299 301 315 317 306 278 131 129 127 112 51 8 340 318 312 302 274 277 268 259 271 269 175 229 316 6 14 287 262 195 194 227 247 269 286 285 286 312 334 343 5 22 14 2 10 43 75 86 81 76 77 80 82 84 84 79 73 71 69 66 65 64 61 57 57 61 67 71 73 73 73 73 71 71
259 275 255 236 263 263 251 285 333 321 298 299 310 308 312 324 314 284 248 132 112 137 165 162 136 190 276 286 293 273 271 257 239 262 289 306 251 241 185 244 271 282 266 230 231 258 278 276 270 283 311 333 354 17 23 11 344 339 4 80 111 112 105 102 102 102 102 102 99 95 92 88 83 80 78 75 69 67 70 74 76 76 75 75 74 71 69
231 231 227 221 241 271 295 327 330 302 295 310 318 307 304 311 300 270 214 154 130 110 70 62 79 175 240 273 358 282 269 261 227 224 268 258 225 186 176 231 239 244 253 261 270 281 280 269 264 291 304 309 359 8 356 355 326 319 324 92 138 140 135 129 127 123 115 109 106 102 100 97 94 90 89 90 90 86 82 81 82 82 81 80 79 76 73
223 232 229 216 220 236 268 297 285 277 285 298 298 291 289 294 295 284 244 155 118 77 36 183 167 94 33 33 248 245 252 260 249 236 248 247 210 155 183 240 244 243 259 277 283 281 273 253 221 241 272 278 268 275 293 287 298 307 307 263 156 152 150 148 146 142 133 119 111 105 100 96 95 95 97 99 96 89 82 80 82 84 84 85 85 83 80
232 240 249 243 235 235 245 258 262 261 262 268 273 276 274 271 276 275 247 161 131 146 228 206 139 97 130 218 226 242 268 283 277 266 265 260 215 177 197 224 242 252 261 272 281 282 268 244 217 215 243 253 234 211 241 279 300 308 302 277 196 168 164 165 161 153 144 134 122 113 105 98 95 96 96 92 88 83 77 74 76 79 81 84 87 88 86